This is the latest recevied weather packets stored in our database for station/object LU3HGB-WX. If no packets are shown the sender has not sent any weather packets the latest 10 day(s).
| Time | Temp. | Humidity | Pressure | Rain* | Wind** | Luminosity | Snow |
|---|---|---|---|---|---|---|---|
| 1788621460 | 9.44° C | 46% | 1026 hPa | 0 mm | - | 117 W/m² | - |
| 1788621159 | 9.44° C | 45% | 1026 hPa | 0 mm | - | 119 W/m² | - |
| 1788620860 | 9.44° C | 46% | 1026 hPa | 0 mm | - | 129 W/m² | - |
| 1788620559 | 10° C | 44% | 1025 hPa | 0 mm | - | 133 W/m² | - |
| 1788620259 | 10° C | 44% | 1025 hPa | 0 mm | - | 143 W/m² | - |
| 1788619960 | 10.56° C | 42% | 1025 hPa | 0 mm | - | 158 W/m² | - |
| 1788619659 | 11.11° C | 41% | 1025 hPa | 0 mm | - | 175 W/m² | - |
| 1788619361 | 11.67° C | 40% | 1025 hPa | 0 mm | - | 208 W/m² | - |
| 1788619060 | 11.67° C | 40% | 1025 hPa | 0 mm | - | 215 W/m² | - |
| 1788618760 | 12.22° C | 38% | 1025 hPa | 0 mm | - | 270 W/m² | - |
| 1788618462 | 12.22° C | 37% | 1025 hPa | 0 mm | - | 284 W/m² | - |
| 1788618159 | 12.22° C | 36% | 1025 hPa | 0 mm | - | 301 W/m² | - |
| 1788617859 | 12.22° C | 37% | 1025 hPa | 0 mm | - | 302 W/m² | - |
| 1788617559 | 12.78° C | 39% | 1025 hPa | 0 mm | - | 348 W/m² | - |
| 1788617260 | 12.78° C | 37% | 1025 hPa | 0 mm | - | 352 W/m² | - |
| 1788616959 | 13.89° C | 36% | 1024 hPa | 0 mm | - | 347 W/m² | - |
| 1788616661 | 13.89° C | 36% | 1024 hPa | 0 mm | - | 368 W/m² | - |
| 1788616359 | 14.44° C | 34% | 1024 hPa | 0 mm | - | 399 W/m² | - |
| 1788616060 | 14.44° C | 34% | 1024 hPa | 0 mm | - | 836 W/m² | - |
| 1788615759 | 15° C | 32% | 1024 hPa | 0 mm | - | 392 W/m² | - |
| 1788615460 | 15° C | 31% | 1024 hPa | 0 mm | - | 307 W/m² | - |
| 1788615159 | 15° C | 29% | 1023 hPa | 0 mm | - | 740 W/m² | - |
| 1788614862 | 15° C | 30% | 1023 hPa | 0 mm | - | 579 W/m² | - |
| 1788614560 | 14.44° C | 29% | 1024 hPa | 0 mm | - | 364 W/m² | - |
| 1788614259 | 14.44° C | 31% | 1023 hPa | 0 mm | - | 693 W/m² | - |
* Rain latest hour (hover to see other rain measurements)
** Current wind speed in m/s (hover to see current wind gust speed)